AO-07 1 07530U 74089B 16070.18390376 -.00000047 00000-0 -17052-4 0 9996 2 07530 101.5630 43.3984 0012168 141.8790 287.3721 12.53620087890711 FO-29 1 24278U 96046B 16070.82409478 .00000011 00000-0 44510-4 0 9994 2 24278 98.5804 8.9245 0351382 97.3008 266.8205 13.53064595966210 RS-22 1 27939U 03042A 16070.66447091 .00000631 00000-0 12256-3 0 9999 2 27939 97.8724 226.2189 0011742 256.8091 103.1804 14.66345099665387 HO-68 1 36122U 09072B 16070.70727297 -.00000059 00000-0 -43517-4 0 9997 2 36122 100.1588 110.5040 0007444 218.8906 141.1668 13.16332716299654 AO-73 1 39444U 13066AE 16070.11289263 .00001085 00000-0 14303-3 0 9994 2 39444 97.6939 127.6567 0058566 346.0919 13.8678 14.80913596122919 EO-79 1 40025U 14033R 16070.67531227 .00001378 00000-0 15660-3 0 9999 2 40025 97.9357 336.1311 0013612 33.0354 327.1710 14.87855807 93558 XW-2A 1 40903U 15049E 16070.69079988 .00008194 00000-0 23862-3 0 9991 2 40903 97.4500 84.6829 0017547 123.3813 348.7162 15.35516396 26435 XW-2C 1 40906U 15049H 16070.67308061 .00003914 00000-0 22339-3 0 9992 2 40906 97.4546 79.8921 0016643 24.0856 67.8994 15.13207931 26101 LILACSAT-2 1 40908U 15049K 16070.69012442 .00002653 00000-0 15642-3 0 9999 2 40908 97.4611 79.8686 0017477 16.6089 95.7057 15.12310959 26097 XW-2E 1 40909U 15049L 16070.80762862 .00005972 00000-0 33170-3 0 9994 2 40909 97.4547 80.1518 0016251 26.5523 26.7233 15.13975204 26133 UO-11 1 14781U 84021B 16070.16877116 .00000394 00000-0 55263-4 0 9998 2 14781 97.7630 125.1367 0007085 280.3015 79.7400 14.82691561721582 LO-19 1 20442U 90005G 16070.39174741 .00000079 00000-0 44835-4 0 9990 2 20442 98.5369 6.7460 0012963 79.3002 280.9641 14.32802980365202 AO-27 1 22825U 93061C 16069.93437977 .00000051 00000-0 37438-4 0 9994 2 22825 98.7475 25.6330 0007364 245.5972 114.4442 14.29942996171053 IO-26 1 22826U 93061D 16069.93131637 .00000060 00000-0 40699-4 0 9992 2 22826 098.7418 025.7654 0007969 236.0009 124.0416 14.30266172170962 GO-32 1 25397U 98043D 16070.17972710 .00000021 00000-0 27822-4 0 9996 2 25397 98.5569 17.7465 0000135 297.2492 62.8673 14.23586148917779 NO-44 1 26931U 01043C 16069.90973087 .00000037 00000-0 46000-4 0 9998 2 26931 67.0507 209.0320 0007509 269.5317 90.4924 14.30391693753943 SO-50 1 27607U 02058C 16070.18578677 .00000429 00000-0 81379-4 0 9997 2 27607 64.5542 103.3164 0076786 237.3031 122.0651 14.75093014710662 CO-55 1 27844U 03031E 16069.95511665 .00000163 00000-0 93582-4 0 9993 2 27844 098.6950 079.6588 0008663 247.2545 112.7718 14.21923790658306 CO-57 1 27848U 03031J 16070.46492606 .00000129 00000-0 78985-4 0 9990 2 27848 98.7047 80.2048 0008538 254.6463 105.3771 14.21553733658313 CO-65 1 32785U 08021C 16070.15066252 .00000947 00000-0 11024-3 0 9998 2 32785 97.6151 108.4312 0011774 263.6895 96.2981 14.87440770425901 PRISM 1 33493U 09002B 16070.67015177 .00002712 00000-0 25564-3 0 9998 2 33493 98.2283 286.0681 0015997 167.4637 192.6991 14.94634061386510 TISAT-1 1 36799U 10035E 16070.78544334 .00002148 00000-0 23083-3 0 9999 2 36799 98.0218 179.6168 0013605 53.6728 306.5742 14.89582359306772 ALMASAT-1 1 38078U 12006B 16069.95867368 .00027914 36472-5 39639-3 0 9992 2 38078 069.4515 279.3748 0412816 243.5501 112.2711 14.96437254214704 DUCHIFAT-1 1 40021U 14033M 16070.71412403 .00001505 00000-0 16545-3 0 9999 2 40021 97.9383 337.0177 0014232 31.8538 328.3536 14.89078507 93603 NANOSATCBR1 1 40024U 14033Q 16070.72403501 .00001661 00000-0 18454-3 0 9996 2 40024 97.9360 336.5459 0013423 31.8783 328.3243 14.88518383 93583 DTUSAT-2 1 40030U 14033W 16070.69967225 .00001311 00000-0 15067-3 0 9996 2 40030 97.9338 335.6890 0012877 27.2771 332.9118 14.87489943 93537 ANTELSAT 1 40034U 14033AA 16070.68670259 .00001179 00000-0 18525-3 0 9991 2 40034 97.9162 321.4771 0059526 343.4209 16.5053 14.73271095 92677 MET-2/21 1 22782U 93055A 16070.03166005 .00000049 00000-0 31314-4 0 9997 2 22782 82.5501 31.9159 0021203 294.5117 110.5368 13.83784906137508 NOAA-15 1 25338U 98030A 16070.55017965 .00000064 00000-0 45834-4 0 9991 2 25338 98.7832 74.5037 0011686 110.6054 249.6380 14.25708772926939 NOAA-18 1 28654U 05018A 16070.58596966 .00000056 00000-0 55985-4 0 9994 2 28654 99.1981 74.9516 0013369 292.9798 66.9962 14.12272641556817 NOAA-19 1 33591U 09005A 16070.59576697 .00000156 00000-0 10999-3 0 9996 2 33591 99.0286 26.6237 0014667 133.6092 226.6299 14.12048997365220 HUBBLE 1 20580U 90037B 16070.51241176 .00001689 00000-0 95168-4 0 9992 2 20580 28.4691 190.2798 0002584 224.7092 214.3674 15.08224347220195 ISS 1 25544U 98067A 16070.79482135 .00010525 00000-0 16678-3 0 9997 2 25544 51.6420 188.7163 0001668 267.0367 191.9340 15.53998955989671 CO-58 1 28895U 05043F 16070.48336656 .00000593 00000-0 12375-3 0 9997 2 28895 97.8261 249.4179 0017272 166.9148 193.2506 14.63125763552676 CAPE1 1 31130U 07012P 16070.43390494 .00000445 00000-0 10572-3 0 9999 2 31130 98.0216 29.6154 0096102 202.7864 156.9056 14.55854503471767 AAUSAT2 1 32788U 08021F 16070.12632500 .00002161 00000-0 21326-3 0 9999 2 32788 97.6158 116.2186 0011049 236.4139 123.6026 14.92946248426410 DO-64 1 32789U 08021G 16069.86169603 .00005041 00000-0 38307-3 0 9995 2 32789 097.6143 130.8125 0012914 237.1024 122.8959 15.02541911426981 CO-66 1 32791U 08021J 16070.11377011 .00001426 00000-0 15480-3 0 9992 2 32791 97.6161 111.2224 0012208 252.7561 107.2321 14.89584526426042 RS-30 1 32953U 08025A 16070.68930728 .00000010 00000-0 -13620-7 0 9995 2 32953 82.5064 167.8999 0018744 213.4740 146.5156 12.43067651353849 JUGNU 1 37839U 11058B 16069.27534394 .00000389 00000-0 65709-4 0 9995 2 37839 019.9623 029.3309 0019173 099.2580 046.2805 14.12527128227775 SRMSAT 1 37841U 11058D 16070.22412105 .00000363 00000-0 54655-4 0 9990 2 37841 19.9726 55.7336 0011918 26.3106 79.5276 14.10528828227697 AO-71 1 37854U 11061E 16069.90598574 .00009286 00000-0 52332-3 0 9998 2 37854 101.7083 062.4214 0175690 006.8158 353.5382 15.01413948236741 HRBE 1 37855U 11061F 16069.92014325 .00009455 00000-0 52186-3 0 9993 2 37855 101.7197 060.5878 0189410 010.1134 350.3803 15.00309277236639 HORYU-2 1 38340U 12025D 16070.19582577 .00001076 00000-0 16840-3 0 9992 2 38340 98.3473 52.6260 0011172 333.6883 26.3756 14.74900817204883 RS-40 1 38735U 12041C 16070.67161298 .00000040 00000-0 21992-3 0 9998 2 38735 82.4708 253.1848 0016506 320.1474 39.8393 12.42571875164139 BEESAT-3 1 39134U 13015E 16070.80064711 .00004487 00000-0 24739-3 0 9992 2 39134 64.8702 279.3866 0010934 237.8196 122.1869 15.15226996159205 BEESAT-2 1 39136U 13015G 16070.06621062 .00003977 00000-0 23417-3 0 9995 2 39136 64.8716 286.6605 0011006 234.8598 125.1495 15.13039920159001 ZACUBE-1 1 39417U 13066B 16070.18651303 .00000884 00000-0 11955-3 0 9995 2 39417 97.6930 127.2296 0059365 347.4643 12.5090 14.80272059124123 TRITON-1 1 39427U 13066M 16070.06177400 .00000809 00000-0 13842-3 0 9998 2 39427 97.6797 109.6329 0115724 35.0939 325.7821 14.67091071122987 GOMX-1 1 39430U 13066Q 16070.74222934 .00000924 00000-0 17747-3 0 9996 2 39430 97.6798 99.1362 0154063 66.4478 295.2823 14.58493097122377 LO-74 1 39440U 13066AA 16070.11472512 .00000834 00000-0 12480-3 0 9996 2 39440 97.6870 120.2131 0081325 5.5832 354.6265 14.75044661123679 SPROUT 1 39770U 14029E 16070.80237255 .00003124 00000-0 37170-3 0 9999 2 39770 97.8693 169.1885 0010350 53.1364 307.0771 14.85059030 97331 EO-80 1 40032U 14033Y 16070.72132636 .00001336 00000-0 15366-3 0 9991 2 40032 97.9347 335.7210 0012836 27.5199 332.6694 14.87421852 93539 VELOX-1 1 40057U 14034E 16070.74113827 .00001424 00000-0 21172-3 0 9992 2 40057 98.1960 158.0757 0012540 101.7386 258.5240 14.76548314 91359 DAURIA DX 1 1 40071U 14037C 16070.68658274 .00000688 00000-0 96720-4 0 9997 2 40071 98.3327 157.8029 0009901 100.0364 260.1978 14.80741520 90375 UKUBE-1 1 40074U 14037F 16070.70291150 .00001483 00000-0 19000-3 0 9998 2 40074 98.3364 159.5488 0005900 101.9071 258.2821 14.82913020 90471 HODOYOSHI-1 1 40299U 14070B 16070.72814782 .00003630 00000-0 16685-3 0 9990 2 40299 97.4348 153.9024 0012328 277.8162 201.5006 15.20940446 74464 CHUBUSAT-1 1 40300U 14070C 16070.71022836 .00003967 00000-0 18973-3 0 9998 2 40300 97.4321 152.3916 0019779 283.2301 197.7442 15.19406738 74373 QSAT-EOS 1 40301U 14070D 16070.73371052 .00007542 00000-0 34687-3 0 9991 2 40301 97.4258 151.6555 0028288 282.5463 197.8786 15.20270525 74344 FIREBIRD FU3 1 40377U 15003B 16070.79836157 .00009203 00000-0 42110-3 0 9995 2 40377 99.0838 159.0734 0147735 94.5974 267.2142 15.11520344 60910 FIREBIRD FU4 1 40378U 15003C 16070.79534337 .00009284 00000-0 42426-3 0 9990 2 40378 99.0840 159.0803 0147965 94.5370 267.2774 15.11532288 60917 GRIFEX 1 40379U 15003D 16070.75626968 .00006548 00000-0 31124-3 0 9992 2 40379 99.0850 158.4741 0151596 97.4203 264.4276 15.09992497 60886 NO-84 1 40654U 15025X 16070.39606145 .00026651 00000-0 57941-3 0 00574 2 40654 054.9953 133.9230 0216965 187.2557 172.4770 15.23040730008978 NO-83 1 40655U 15025X 16070.39310627 .00035966 00000-0 73716-3 0 00603 2 40655 054.9867 130.5508 0201665 187.7673 171.9469 15.26894128008991 DEORBITSAIL 1 40719U 15032E 16070.27698406 .00001600 00000-0 24317-3 0 9995 2 40719 98.0291 322.7236 0016213 190.2293 169.8588 14.75338574 35905 NUDT-PHONESAT 1 40900U 15049B 16070.73120003 .00009609 00000-0 50387-3 0 9992 2 40900 97.4469 80.2590 0016929 43.5541 69.9950 15.15849286 26158 XW-2D 1 40907U 15049J 16070.81431976 .00004256 00000-0 24255-3 0 9990 2 40907 97.4511 79.9461 0015930 22.5908 101.4516 15.13220567 26120 XW-2F 1 40910U 15049M 16070.73979271 .00005654 00000-0 31827-3 0 9996 2 40910 97.4543 79.9640 0017041 21.4339 98.1020 15.13510389 26002 XW-2B 1 40911U 15049N 16070.81301073 .00004037 00000-0 23031-3 0 9997 2 40911 97.4556 80.0581 0015900 22.5679 101.5050 15.13215913 26024 DCBB 1 40912U 15049P 16070.72710944 .00006052 00000-0 32292-3 0 9997 2 40912 97.4547 80.4332 0017267 18.2773 69.3590 15.15389121 26045 TW-1C 1 40926U 15051B 16070.86649454 .00019087 00000-0 57204-3 0 9999 2 40926 97.2882 108.9285 0016276 47.0346 72.7292 15.34405847 25678 TW-1A 1 40928U 15051D 16070.76396138 .00008474 00000-0 27341-3 0 9995 2 40928 97.2825 108.4679 0016186 61.9342 29.1938 15.32261555 25644 IO-86 1 40931U 15052B 16070.45552079 .00000300 00000-0 41884-4 0 9993 2 40931 5.9977 298.9582 0012496 164.6676 195.4290 14.76434842 24310 AAUSat-5 1 40948U 98067GZ 16070.44959676 .01116702 71555-3 14488-2 0 9990 2 40948 51.6273 172.1898 0010110 335.7661 24.2795 16.06463342 24641 GomX-3 1 40949U 98067HA 16070.52499271 .00051013 00000-0 43644-3 0 9993 2 40949 51.6382 181.1162 0005152 233.7301 126.3220 15.68918742 24536 LQSat 1 40958U 15057A 16070.66764507 .00000338 00000-0 60561-4 0 9995 2 40958 98.0225 146.8275 0019566 108.1810 252.1532 14.72827380 22885 AO-85 1 40967U 15058D 16070.33308864 .00002371 00000-0 26195-3 0 00657 2 40967 064.7791 185.5709 0212982 236.0652 122.0044 14.74839355008690 ATHENOXAT-1 1 41168U 15077C 16067.02928743 .00005828 00000-0 31440-3 0 9993 2 41168 14.9887 336.9097 0014253 29.8304 81.4723 15.09254826 12298 AGGIESAT4 1 41313U 98067HP 16070.55980373 .00024541 00000-0 34304-3 0 9999 2 41313 51.6406 189.6160 0004758 208.3921 151.7331 15.56171490 6350 ChubuSat-2 1 41338U 16012B 16070.58963851 .00001653 00000-0 12547-3 0 9995 2 41338 31.0021 175.6245 0013927 151.3788 208.7620 14.99238042 3340 ChubuSat-3 1 41339U 16012C 16070.58606377 .00001515 00000-0 11368-3 0 9990 2 41339 31.0102 175.6027 0013936 157.4419 202.6839 14.99478056 3310 Horyu-4 1 41340U 16012D 16070.51521169 .00002567 00000-0 19574-3 0 9995 2 41340 31.0027 175.9809 0014428 160.3911 199.7280 14.99785155 3324 /EX
